Time,TemperatureF,DewpointF,PressureIn,WindDirection,WindDirectionDegrees,WindSpeedMPH,WindSpeedGustMPH,Humidity,HourlyPrecipIn,Conditions,Clouds,dailyrainin,SoftwareType,DateUTC
2013-06-15 00:03:00,58.3,44.9,29.79,WSW,256,0.0,0.0,61,0.00,,,0.00,Weather View 32 v70,2013-06-15 08:03:00,
2013-06-15 00:11:00,57.6,45.1,29.79,WSW,256,0.0,0.0,63,0.00,,,0.00,Weather View 32 v70,2013-06-15 08:11:00,
2013-06-15 00:12:00,57.5,45.0,29.79,WSW,256,0.0,0.0,63,0.00,,,0.00,Weather View 32 v70,2013-06-15 08:12:00,
2013-06-15 00:13:00,57.3,44.8,29.79,WSW,256,0.0,0.0,63,0.00,,,0.00,Weather View 32 v70,2013-06-15 08:13:00,
2013-06-15 00:14:00,57.1,45.0,29.79,WSW,256,0.0,0.0,64,0.00,,,0.00,Weather View 32 v70,2013-06-15 08:14:00,
2013-06-15 00:15:00,56.9,44.8,29.79,WSW,256,0.0,0.0,64,0.00,,,0.00,Weather View 32 v70,2013-06-15 08:15:00,
2013-06-15 00:16:00,56.7,45.0,29.79,WSW,256,0.0,0.0,65,0.00,,,0.00,Weather View 32 v70,2013-06-15 08:16:00,
2013-06-15 00:17:00,56.6,44.9,29.79,WSW,256,0.0,0.0,65,0.00,,,0.00,Weather View 32 v70,2013-06-15 08:17:00,
2013-06-15 00:30:00,55.1,43.9,29.79,WSW,256,0.0,0.0,66,0.00,,,0.00,Weather View 32 v70,2013-06-15 08:30:00,
2013-06-15 00:32:00,56.6,44.9,29.79,WSW,256,0.0,0.0,65,0.00,,,0.00,Weather View 32 v70,2013-06-15 08:32:00,
2013-06-15 00:37:00,53.8,42.7,29.79,WSW,256,0.0,0.0,66,0.00,,,0.00,Weather View 32 v70,2013-06-15 08:37:00,
2013-06-15 00:42:00,53.3,43.4,29.80,WSW,256,0.0,0.0,69,0.00,,,0.00,Weather View 32 v70,2013-06-15 08:42:00,
2013-06-15 00:47:00,52.8,42.9,29.80,WSW,256,0.0,0.0,69,0.00,,,0.00,Weather View 32 v70,2013-06-15 08:47:00,
2013-06-15 00:52:00,52.4,42.9,29.80,WSW,256,0.0,0.0,70,0.00,,,0.00,Weather View 32 v70,2013-06-15 08:52:00,
2013-06-15 00:57:00,51.9,42.4,29.80,WSW,256,0.0,0.0,70,0.00,,,0.00,Weather View 32 v70,2013-06-15 08:57:00,
2013-06-15 01:01:00,51.5,42.4,29.80,WSW,256,0.0,0.0,71,0.00,,,0.00,Weather View 32 v70,2013-06-15 09:01:00,
2013-06-15 01:06:00,51.0,43.0,29.80,WSW,256,0.0,0.0,74,0.00,,,0.00,Weather View 32 v70,2013-06-15 09:06:00,
2013-06-15 01:11:00,50.5,42.5,29.80,WSW,256,0.0,0.0,74,0.00,,,0.00,Weather View 32 v70,2013-06-15 09:11:00,
2013-06-15 01:16:00,50.0,42.7,29.80,WSW,256,0.0,0.0,76,0.00,,,0.00,Weather View 32 v70,2013-06-15 09:16:00,
2013-06-15 01:21:00,49.6,43.0,29.80,WSW,256,0.0,0.0,78,0.00,,,0.00,Weather View 32 v70,2013-06-15 09:21:00,
2013-06-15 01:26:00,49.2,42.6,29.81,WSW,256,0.0,0.0,78,0.00,,,0.00,Weather View 32 v70,2013-06-15 09:26:00,
2013-06-15 01:31:00,48.9,43.3,29.80,WSW,255,0.0,0.0,81,0.00,,,0.00,Weather View 32 v70,2013-06-15 09:31:00,
2013-06-15 01:36:00,48.6,43.0,29.81,WSW,256,0.0,0.0,81,0.00,,,0.00,Weather View 32 v70,2013-06-15 09:36:00,
2013-06-15 01:41:00,48.4,42.2,29.81,WSW,256,0.0,0.0,79,0.00,,,0.00,Weather View 32 v70,2013-06-15 09:41:00,
2013-06-15 01:46:00,48.0,42.1,29.81,WSW,256,0.0,0.0,80,0.00,,,0.00,Weather View 32 v70,2013-06-15 09:46:00,
2013-06-15 01:51:00,47.7,41.2,29.81,WSW,256,0.0,0.0,78,0.00,,,0.00,Weather View 32 v70,2013-06-15 09:51:00,
2013-06-15 01:56:00,47.6,41.4,29.81,WSW,256,0.0,0.0,79,0.00,,,0.00,Weather View 32 v70,2013-06-15 09:56:00,
2013-06-15 02:01:00,47.4,40.9,29.81,WSW,256,0.0,0.0,78,0.00,,,0.00,Weather View 32 v70,2013-06-15 10:01:00,
2013-06-15 02:06:00,47.1,40.2,29.82,WSW,256,0.0,0.0,77,0.00,,,0.00,Weather View 32 v70,2013-06-15 10:06:00,
2013-06-15 02:11:00,46.8,40.0,29.82,WSW,256,0.0,0.0,77,0.00,,,0.00,Weather View 32 v70,2013-06-15 10:11:00,
2013-06-15 02:16:00,46.4,39.6,29.82,WSW,256,0.0,0.0,77,0.00,,,0.00,Weather View 32 v70,2013-06-15 10:16:00,
2013-06-15 02:21:00,46.0,39.5,29.82,WSW,256,0.0,0.0,78,0.00,,,0.00,Weather View 32 v70,2013-06-15 10:21:00,
2013-06-15 02:26:00,45.6,39.5,29.82,WSW,256,0.0,0.0,79,0.00,,,0.00,Weather View 32 v70,2013-06-15 10:26:00,
2013-06-15 02:31:00,45.2,39.4,29.82,WSW,255,0.0,0.0,80,0.00,,,0.00,Weather View 32 v70,2013-06-15 10:31:00,
2013-06-15 02:36:00,44.8,39.3,29.82,WSW,256,0.0,0.0,81,0.00,,,0.00,Weather View 32 v70,2013-06-15 10:36:00,
2013-06-15 02:41:00,44.5,39.0,29.82,WSW,256,0.0,0.0,81,0.00,,,0.00,Weather View 32 v70,2013-06-15 10:41:00,
2013-06-15 02:46:00,44.3,39.5,29.82,WSW,256,0.0,0.0,83,0.00,,,0.00,Weather View 32 v70,2013-06-15 10:46:00,
2013-06-15 02:51:00,44.0,38.9,29.83,WSW,256,0.0,0.0,82,0.00,,,0.00,Weather View 32 v70,2013-06-15 10:51:00,
2013-06-15 02:56:00,43.8,39.3,29.83,WSW,256,0.0,0.0,84,0.00,,,0.00,Weather View 32 v70,2013-06-15 10:56:00,
2013-06-15 03:01:00,43.7,39.5,29.83,WSW,256,0.0,0.0,85,0.00,,,0.00,Weather View 32 v70,2013-06-15 11:01:00,
2013-06-15 03:06:00,43.4,40.1,29.83,WSW,256,0.0,0.0,88,0.00,,,0.00,Weather View 32 v70,2013-06-15 11:06:00,
2013-06-15 03:11:00,43.2,40.2,29.83,WSW,256,0.0,0.0,89,0.00,,,0.00,Weather View 32 v70,2013-06-15 11:11:00,
2013-06-15 03:16:00,43.1,40.6,29.83,WSW,256,0.0,0.0,91,0.00,,,0.00,Weather View 32 v70,2013-06-15 11:16:00,
2013-06-15 03:21:00,43.0,40.8,29.83,WSW,256,0.0,0.0,92,0.00,,,0.00,Weather View 32 v70,2013-06-15 11:21:00,
2013-06-15 03:26:00,43.0,40.3,29.83,WSW,256,0.0,0.0,90,0.00,,,0.00,Weather View 32 v70,2013-06-15 11:26:00,
2013-06-15 03:31:00,43.0,40.5,29.83,WSW,256,0.0,0.0,91,0.00,,,0.00,Weather View 32 v70,2013-06-15 11:31:00,
2013-06-15 03:36:00,42.9,40.2,29.83,WSW,256,0.0,0.0,90,0.00,,,0.00,Weather View 32 v70,2013-06-15 11:36:00,
2013-06-15 03:41:00,42.7,40.0,29.83,WSW,256,0.0,0.0,90,0.00,,,0.00,Weather View 32 v70,2013-06-15 11:41:00,
2013-06-15 03:46:00,42.7,40.5,29.83,WSW,256,0.0,0.0,92,0.00,,,0.00,Weather View 32 v70,2013-06-15 11:46:00,
2013-06-15 03:51:00,42.7,40.0,29.84,WSW,256,0.0,0.0,90,0.00,,,0.00,Weather View 32 v70,2013-06-15 11:51:00,
2013-06-15 03:56:00,42.5,39.8,29.84,WSW,256,0.0,0.0,90,0.00,,,0.00,Weather View 32 v70,2013-06-15 11:56:00,
2013-06-15 04:01:00,42.5,39.8,29.84,WSW,256,0.0,0.0,90,0.00,,,0.00,Weather View 32 v70,2013-06-15 12:01:00,
2013-06-15 04:06:00,42.5,39.5,29.84,WSW,256,0.0,0.0,89,0.00,,,0.00,Weather View 32 v70,2013-06-15 12:06:00,
2013-06-15 04:12:00,42.5,40.1,29.84,WSW,256,0.0,0.0,91,0.00,,,0.00,Weather View 32 v70,2013-06-15 12:12:00,
2013-06-15 04:17:00,42.5,40.1,29.84,WSW,256,0.0,0.0,91,0.00,,,0.00,Weather View 32 v70,2013-06-15 12:17:00,
2013-06-15 04:22:00,42.4,40.0,29.84,WSW,256,0.0,0.0,91,0.00,,,0.00,Weather View 32 v70,2013-06-15 12:22:00,
2013-06-15 04:27:00,42.4,40.0,29.84,WSW,256,0.0,0.0,91,0.00,,,0.00,Weather View 32 v70,2013-06-15 12:27:00,
2013-06-15 04:32:00,42.4,40.0,29.84,WSW,256,0.0,0.0,91,0.00,,,0.00,Weather View 32 v70,2013-06-15 12:32:00,
2013-06-15 04:37:00,42.3,39.6,29.84,WSW,256,0.0,0.0,90,0.00,,,0.00,Weather View 32 v70,2013-06-15 12:37:00,
2013-06-15 04:42:00,42.2,39.5,29.84,WSW,255,0.0,0.0,90,0.00,,,0.00,Weather View 32 v70,2013-06-15 12:42:00,
2013-06-15 04:47:00,42.2,39.5,29.84,WSW,256,0.0,0.0,90,0.00,,,0.00,Weather View 32 v70,2013-06-15 12:47:00,
2013-06-15 04:52:00,42.2,39.5,29.84,WSW,256,0.0,0.0,90,0.00,,,0.00,Weather View 32 v70,2013-06-15 12:52:00,
2013-06-15 04:57:00,42.2,39.5,29.84,WSW,256,0.0,0.0,90,0.00,,,0.00,Weather View 32 v70,2013-06-15 12:57:00,
2013-06-15 05:02:00,42.1,39.4,29.84,WSW,256,0.0,0.0,90,0.00,,,0.00,Weather View 32 v70,2013-06-15 13:02:00,
2013-06-15 05:07:00,42.3,39.9,29.84,WSW,256,0.0,0.0,91,0.00,,,0.00,Weather View 32 v70,2013-06-15 13:07:00,
2013-06-15 05:12:00,42.3,39.6,29.84,WSW,256,0.0,0.0,90,0.00,,,0.00,Weather View 32 v70,2013-06-15 13:12:00,
2013-06-15 05:17:00,42.4,40.0,29.84,WSW,256,0.0,0.0,91,0.00,,,0.00,Weather View 32 v70,2013-06-15 13:17:00,
2013-06-15 05:22:00,42.7,40.3,29.84,WSW,256,0.0,0.0,91,0.00,,,0.00,Weather View 32 v70,2013-06-15 13:22:00,
2013-06-15 05:27:00,43.0,40.5,29.84,WSW,256,0.0,0.0,91,0.00,,,0.00,Weather View 32 v70,2013-06-15 13:27:00,
2013-06-15 05:32:00,43.3,40.8,29.84,WSW,256,0.0,0.0,91,0.00,,,0.00,Weather View 32 v70,2013-06-15 13:32:00,
2013-06-15 05:37:00,43.6,41.1,29.84,WSW,256,0.0,0.0,91,0.00,,,0.00,Weather View 32 v70,2013-06-15 13:37:00,
2013-06-15 05:42:00,44.0,41.8,29.84,WSW,256,0.0,0.0,92,0.00,,,0.00,Weather View 32 v70,2013-06-15 13:42:00,
2013-06-15 05:47:00,44.4,41.9,29.85,WSW,256,0.0,0.0,91,0.00,,,0.00,Weather View 32 v70,2013-06-15 13:47:00,
2013-06-15 05:52:00,44.8,42.9,29.85,WSW,256,0.0,0.0,93,0.00,,,0.00,Weather View 32 v70,2013-06-15 13:52:00,
2013-06-15 05:57:00,45.3,43.1,29.85,WSW,256,0.0,0.0,92,0.00,,,0.00,Weather View 32 v70,2013-06-15 13:57:00,
2013-06-15 06:02:00,45.9,43.7,29.85,WSW,256,0.0,0.0,92,0.00,,,0.00,Weather View 32 v70,2013-06-15 14:02:00,
2013-06-15 06:07:00,46.7,44.2,29.85,WSW,256,0.0,0.0,91,0.00,,,0.00,Weather View 32 v70,2013-06-15 14:07:00,
2013-06-15 06:12:00,47.3,44.5,29.85,WSW,256,0.0,0.0,90,0.00,,,0.00,Weather View 32 v70,2013-06-15 14:12:00,
2013-06-15 06:17:00,47.9,44.2,29.85,WSW,256,0.0,0.0,87,0.00,,,0.00,Weather View 32 v70,2013-06-15 14:17:00,
2013-06-15 06:22:00,48.8,45.4,29.85,WSW,256,0.0,0.0,88,0.00,,,0.00,Weather View 32 v70,2013-06-15 14:22:00,
2013-06-15 06:27:00,49.7,45.4,29.85,WSW,256,0.0,0.0,85,0.00,,,0.00,Weather View 32 v70,2013-06-15 14:27:00,
2013-06-15 06:32:00,50.5,45.2,29.86,WSW,256,0.0,0.0,82,0.00,,,0.00,Weather View 32 v70,2013-06-15 14:32:00,
2013-06-15 06:37:00,51.0,45.0,29.86,WSW,256,0.0,0.0,80,0.00,,,0.00,Weather View 32 v70,2013-06-15 14:37:00,
2013-06-15 06:42:00,51.6,45.3,29.86,WSW,256,0.0,0.0,79,0.00,,,0.00,Weather View 32 v70,2013-06-15 14:42:00,
2013-06-15 06:47:00,52.1,45.8,29.86,WSW,256,0.0,0.0,79,0.00,,,0.00,Weather View 32 v70,2013-06-15 14:47:00,
2013-06-15 06:52:00,52.5,45.8,29.86,WSW,256,0.0,0.0,78,0.00,,,0.00,Weather View 32 v70,2013-06-15 14:52:00,
2013-06-15 06:57:00,52.9,45.5,29.86,WSW,256,0.0,0.0,76,0.00,,,0.00,Weather View 32 v70,2013-06-15 14:57:00,
2013-06-15 07:02:00,53.3,45.2,29.86,WSW,256,0.0,0.0,74,0.00,,,0.00,Weather View 32 v70,2013-06-15 15:02:00,
2013-06-15 07:07:00,53.7,45.6,29.86,WSW,256,0.0,0.0,74,0.00,,,0.00,Weather View 32 v70,2013-06-15 15:07:00,
2013-06-15 07:12:00,54.2,45.7,29.86,WSW,256,0.0,0.0,73,0.00,,,0.00,Weather View 32 v70,2013-06-15 15:12:00,
2013-06-15 07:17:00,54.8,45.6,29.86,WSW,256,0.0,0.0,71,0.00,,,0.00,Weather View 32 v70,2013-06-15 15:17:00,
2013-06-15 07:22:00,55.3,45.3,29.86,WSW,256,0.0,0.0,69,0.00,,,0.00,Weather View 32 v70,2013-06-15 15:22:00,
2013-06-15 07:27:00,55.9,45.5,29.86,WSW,256,0.0,0.0,68,0.00,,,0.00,Weather View 32 v70,2013-06-15 15:27:00,
2013-06-15 07:32:00,56.3,45.9,29.86,WSW,256,0.0,0.0,68,0.00,,,0.00,Weather View 32 v70,2013-06-15 15:32:00,
2013-06-15 07:37:00,56.8,45.9,29.86,WSW,256,1.0,3.0,67,0.00,,,0.00,Weather View 32 v70,2013-06-15 15:37:00,
2013-06-15 07:42:00,57.1,45.8,29.86,WSW,256,1.0,3.0,66,0.00,,,0.00,Weather View 32 v70,2013-06-15 15:42:00,
2013-06-15 07:47:00,57.4,46.9,29.86,WNW,294,0.0,4.0,68,0.00,,,0.00,Weather View 32 v70,2013-06-15 15:47:00,
2013-06-15 07:52:00,57.8,46.5,29.86,NW,309,0.0,4.0,66,0.00,,,0.00,Weather View 32 v70,2013-06-15 15:52:00,
2013-06-15 07:57:00,58.2,46.1,29.86,NW,318,2.0,4.0,64,0.00,,,0.00,Weather View 32 v70,2013-06-15 15:57:00,
2013-06-15 08:02:00,58.5,45.5,29.86,North,8,3.0,5.0,62,0.00,,,0.00,Weather View 32 v70,2013-06-15 16:02:00,
2013-06-15 08:07:00,58.7,45.3,29.86,NE,55,1.0,5.0,61,0.00,,,0.00,Weather View 32 v70,2013-06-15 16:07:00,
2013-06-15 08:12:00,59.0,45.1,29.86,East,80,2.0,5.0,60,0.00,,,0.00,Weather View 32 v70,2013-06-15 16:12:00,
2013-06-15 08:17:00,59.3,44.9,29.86,East,79,1.0,5.0,59,0.00,,,0.00,Weather View 32 v70,2013-06-15 16:17:00,
2013-06-15 08:22:00,59.6,44.8,29.86,NE,34,1.0,5.0,58,0.00,,,0.00,Weather View 32 v70,2013-06-15 16:22:00,
2013-06-15 08:27:00,60.0,44.7,29.86,NE,34,0.0,5.0,57,0.00,,,0.00,Weather View 32 v70,2013-06-15 16:27:00,
2013-06-15 08:32:00,60.4,44.6,29.86,NE,34,0.0,5.0,56,0.00,,,0.00,Weather View 32 v70,2013-06-15 16:32:00,
2013-06-15 08:37:00,60.9,44.6,29.87,NE,34,2.0,5.0,55,0.00,,,0.00,Weather View 32 v70,2013-06-15 16:37:00,
2013-06-15 08:42:00,61.5,43.7,29.87,NE,34,1.0,5.0,52,0.00,,,0.00,Weather View 32 v70,2013-06-15 16:42:00,
2013-06-15 08:47:00,62.1,47.6,29.87,NE,34,0.0,5.0,59,0.00,,,0.00,Weather View 32 v70,2013-06-15 16:47:00,
2013-06-15 08:52:00,62.5,47.0,29.87,NE,34,0.0,5.0,57,0.00,,,0.00,Weather View 32 v70,2013-06-15 16:52:00,
2013-06-15 08:57:00,63.0,46.5,29.87,NE,34,0.0,5.0,55,0.00,,,0.00,Weather View 32 v70,2013-06-15 16:57:00,
2013-06-15 09:02:00,63.7,48.1,29.87,NE,34,2.0,5.0,57,0.00,,,0.00,Weather View 32 v70,2013-06-15 17:02:00,
2013-06-15 09:07:00,64.6,49.4,29.87,NE,34,0.0,5.0,58,0.00,,,0.00,Weather View 32 v70,2013-06-15 17:07:00,
2013-06-15 09:12:00,65.3,47.7,29.87,NE,34,0.0,5.0,53,0.00,,,0.00,Weather View 32 v70,2013-06-15 17:12:00,
2013-06-15 09:17:00,65.9,46.7,29.87,NE,34,0.0,5.0,50,0.00,,,0.00,Weather View 32 v70,2013-06-15 17:17:00,
2013-06-15 09:22:00,66.2,45.9,29.87,NE,34,0.0,3.0,48,0.00,,,0.00,Weather View 32 v70,2013-06-15 17:22:00,
2013-06-15 09:27:00,66.5,47.2,29.87,NE,34,1.0,3.0,50,0.00,,,0.00,Weather View 32 v70,2013-06-15 17:27:00,
2013-06-15 09:32:00,67.3,47.4,29.87,NE,34,0.0,3.0,49,0.00,,,0.00,Weather View 32 v70,2013-06-15 17:32:00,
2013-06-15 09:37:00,67.6,48.2,29.87,NE,34,1.0,3.0,50,0.00,,,0.00,Weather View 32 v70,2013-06-15 17:37:00,
2013-06-15 09:42:00,68.1,48.2,29.87,NE,34,0.0,3.0,49,0.00,,,0.00,Weather View 32 v70,2013-06-15 17:42:00,
2013-06-15 09:47:00,68.5,48.5,29.87,NE,34,0.0,3.0,49,0.00,,,0.00,Weather View 32 v70,2013-06-15 17:47:00,
2013-06-15 09:52:00,68.7,45.2,29.87,NE,34,0.0,3.0,43,0.00,,,0.00,Weather View 32 v70,2013-06-15 17:52:00,
2013-06-15 09:57:00,69.1,45.6,29.87,NE,34,1.0,3.0,43,0.00,,,0.00,Weather View 32 v70,2013-06-15 17:57:00,
2013-06-15 10:02:00,69.1,46.2,29.87,North,3,4.0,4.0,44,0.00,,,0.00,Weather View 32 v70,2013-06-15 18:02:00,
2013-06-15 10:07:00,69.5,47.2,29.87,North,0,2.0,4.0,45,0.00,,,0.00,Weather View 32 v70,2013-06-15 18:07:00,
2013-06-15 10:12:00,69.6,47.3,29.86,North,0,0.0,4.0,45,0.00,,,0.00,Weather View 32 v70,2013-06-15 18:12:00,
2013-06-15 10:17:00,70.1,45.9,29.87,North,0,1.0,4.0,42,0.00,,,0.00,Weather View 32 v70,2013-06-15 18:17:00,
2013-06-15 10:22:00,70.3,46.7,29.86,North,0,0.0,4.0,43,0.00,,,0.00,Weather View 32 v70,2013-06-15 18:22:00,
2013-06-15 10:27:00,70.7,48.8,29.86,North,0,1.0,4.0,46,0.00,,,0.00,Weather View 32 v70,2013-06-15 18:27:00,
2013-06-15 10:32:00,70.9,48.4,29.86,North,9,1.0,4.0,45,0.00,,,0.00,Weather View 32 v70,2013-06-15 18:32:00,
2013-06-15 10:37:00,70.9,49.0,29.86,NW,318,3.0,4.0,46,0.00,,,0.00,Weather View 32 v70,2013-06-15 18:37:00,
2013-06-15 10:42:00,70.6,48.2,29.86,WSW,247,3.0,4.0,45,0.00,,,0.00,Weather View 32 v70,2013-06-15 18:42:00,
2013-06-15 10:47:00,70.3,47.9,29.86,WSW,247,1.0,5.0,45,0.00,,,0.00,Weather View 32 v70,2013-06-15 18:47:00,
2013-06-15 10:52:00,70.3,47.9,29.86,WSW,247,2.0,5.0,45,0.00,,,0.00,Weather View 32 v70,2013-06-15 18:52:00,
2013-06-15 10:57:00,70.2,47.8,29.86,West,279,3.0,6.0,45,0.00,,,0.00,Weather View 32 v70,2013-06-15 18:57:00,
2013-06-15 11:02:00,70.5,48.1,29.86,West,272,1.0,6.0,45,0.00,,,0.00,Weather View 32 v70,2013-06-15 19:02:00,
2013-06-15 11:07:00,70.8,47.7,29.86,West,265,1.0,6.0,44,0.00,,,0.00,Weather View 32 v70,2013-06-15 19:07:00,
2013-06-15 11:12:00,71.2,48.1,29.86,West,265,1.0,6.0,44,0.00,,,0.00,Weather View 32 v70,2013-06-15 19:12:00,
2013-06-15 11:17:00,71.9,46.9,29.86,West,265,2.0,6.0,41,0.00,,,0.00,Weather View 32 v70,2013-06-15 19:17:00,
2013-06-15 11:22:00,72.4,47.3,29.86,West,265,1.0,6.0,41,0.00,,,0.00,Weather View 32 v70,2013-06-15 19:22:00,
2013-06-15 11:27:00,72.7,49.5,29.86,West,265,1.0,6.0,44,0.00,,,0.00,Weather View 32 v70,2013-06-15 19:27:00,
2013-06-15 11:32:00,72.9,49.6,29.85,West,264,2.0,6.0,44,0.00,,,0.00,Weather View 32 v70,2013-06-15 19:32:00,
2013-06-15 11:37:00,73.1,45.9,29.86,West,264,3.0,6.0,38,0.00,,,0.00,Weather View 32 v70,2013-06-15 19:37:00,
2013-06-15 11:42:00,73.1,45.9,29.86,West,265,3.0,6.0,38,0.00,,,0.00,Weather View 32 v70,2013-06-15 19:42:00,
2013-06-15 11:47:00,73.5,45.6,29.85,West,265,0.0,6.0,37,0.00,,,0.00,Weather View 32 v70,2013-06-15 19:47:00,
2013-06-15 11:52:00,73.8,46.5,29.86,West,265,2.0,6.0,38,0.00,,,0.00,Weather View 32 v70,2013-06-15 19:52:00,
2013-06-15 11:57:00,74.0,45.3,29.85,West,265,1.0,5.0,36,0.00,,,0.00,Weather View 32 v70,2013-06-15 19:57:00,
2013-06-15 12:02:00,73.8,45.1,29.85,WSW,258,0.0,5.0,36,0.00,,,0.00,Weather View 32 v70,2013-06-15 20:02:00,
2013-06-15 12:07:00,74.0,45.3,29.85,WSW,258,0.0,5.0,36,0.00,,,0.00,Weather View 32 v70,2013-06-15 20:07:00,
2013-06-15 12:12:00,74.3,45.5,29.85,WSW,258,1.0,5.0,36,0.00,,,0.00,Weather View 32 v70,2013-06-15 20:12:00,
2013-06-15 12:17:00,74.4,44.9,29.85,WSW,258,1.0,5.0,35,0.00,,,0.00,Weather View 32 v70,2013-06-15 20:17:00,
2013-06-15 12:22:00,74.5,45.0,29.85,WSW,258,1.0,5.0,35,0.00,,,0.00,Weather View 32 v70,2013-06-15 20:22:00,
2013-06-15 12:27:00,74.7,45.9,29.85,WSW,258,1.0,5.0,36,0.00,,,0.00,Weather View 32 v70,2013-06-15 20:27:00,
2013-06-15 12:32:00,75.2,46.3,29.85,WSW,258,2.0,5.0,36,0.00,,,0.00,Weather View 32 v70,2013-06-15 20:32:00,
2013-06-15 12:37:00,75.8,49.0,29.85,West,260,2.0,6.0,39,0.00,,,0.00,Weather View 32 v70,2013-06-15 20:37:00,
2013-06-15 12:42:00,76.0,46.3,29.84,NNE,27,1.0,6.0,35,0.00,,,0.00,Weather View 32 v70,2013-06-15 20:42:00,
2013-06-15 12:47:00,76.1,47.1,29.85,WSW,247,1.0,6.0,36,0.00,,,0.00,Weather View 32 v70,2013-06-15 20:47:00,
2013-06-15 12:52:00,76.5,48.2,29.85,WSW,239,2.0,6.0,37,0.00,,,0.00,Weather View 32 v70,2013-06-15 20:52:00,
2013-06-15 12:57:00,76.7,48.4,29.84,WSW,239,1.0,6.0,37,0.00,,,0.00,Weather View 32 v70,2013-06-15 20:57:00,
2013-06-15 13:02:00,77.1,45.7,29.84,SSW,204,2.0,6.0,33,0.00,,,0.00,Weather View 32 v70,2013-06-15 21:02:00,
2013-06-15 13:07:00,77.3,44.2,29.84,SSW,204,2.0,6.0,31,0.00,,,0.00,Weather View 32 v70,2013-06-15 21:07:00,
2013-06-15 13:11:00,77.5,45.2,29.84,SW,227,1.0,6.0,32,0.00,,,0.00,Weather View 32 v70,2013-06-15 21:11:00,
2013-06-15 13:16:00,78.0,44.8,29.84,SW,227,3.0,6.0,31,0.00,,,0.00,Weather View 32 v70,2013-06-15 21:16:00,
2013-06-15 13:21:00,78.0,44.0,29.83,WNW,301,1.0,8.0,30,0.00,,,0.00,Weather View 32 v70,2013-06-15 21:21:00,
2013-06-15 13:26:00,78.4,45.2,29.83,West,266,2.0,8.0,31,0.00,,,0.00,Weather View 32 v70,2013-06-15 21:26:00,
2013-06-15 13:31:00,78.7,44.6,29.83,SW,235,2.0,8.0,30,0.00,,,0.00,Weather View 32 v70,2013-06-15 21:31:00,
2013-06-15 13:36:00,79.3,45.1,29.83,SW,235,2.0,8.0,30,0.00,,,0.00,Weather View 32 v70,2013-06-15 21:36:00,
2013-06-15 13:41:00,79.9,46.5,29.83,SSW,196,3.0,8.0,31,0.00,,,0.00,Weather View 32 v70,2013-06-15 21:41:00,
2013-06-15 13:46:00,80.2,45.0,29.83,SSW,208,2.0,8.0,29,0.00,,,0.00,Weather View 32 v70,2013-06-15 21:46:00,
2013-06-15 13:51:00,80.2,44.0,29.83,WSW,249,0.0,8.0,28,0.00,,,0.00,Weather View 32 v70,2013-06-15 21:51:00,
2013-06-15 13:56:00,79.9,44.7,29.83,WSW,249,1.0,8.0,29,0.00,,,0.00,Weather View 32 v70,2013-06-15 21:56:00,
2013-06-15 14:01:00,80.0,42.9,29.83,WSW,257,4.0,8.0,27,0.00,,,0.00,Weather View 32 v70,2013-06-15 22:01:00,
2013-06-15 14:06:00,80.0,42.9,29.83,SW,235,2.0,8.0,27,0.00,,,0.00,Weather View 32 v70,2013-06-15 22:06:00,
2013-06-15 14:11:00,80.1,43.0,29.83,WSW,239,2.0,8.0,27,0.00,,,0.00,Weather View 32 v70,2013-06-15 22:11:00,
2013-06-15 14:16:00,80.1,43.0,29.83,WSW,238,3.0,8.0,27,0.00,,,0.00,Weather View 32 v70,2013-06-15 22:16:00,
2013-06-15 14:21:00,80.1,43.0,29.83,SW,233,1.0,7.0,27,0.00,,,0.00,Weather View 32 v70,2013-06-15 22:21:00,
2013-06-15 14:26:00,80.3,43.2,29.83,SW,233,2.0,7.0,27,0.00,,,0.00,Weather View 32 v70,2013-06-15 22:26:00,
2013-06-15 14:31:00,80.6,43.4,29.82,North,352,3.0,7.0,27,0.00,,,0.00,Weather View 32 v70,2013-06-15 22:31:00,
2013-06-15 14:36:00,80.4,43.3,29.83,West,269,6.0,7.0,27,0.00,,,0.00,Weather View 32 v70,2013-06-15 22:36:00,
2013-06-15 14:41:00,80.2,43.1,29.82,West,261,3.0,7.0,27,0.00,,,0.00,Weather View 32 v70,2013-06-15 22:41:00,
2013-06-15 14:46:00,80.1,43.0,29.82,NW,310,3.0,7.0,27,0.00,,,0.00,Weather View 32 v70,2013-06-15 22:46:00,
2013-06-15 14:51:00,80.0,42.9,29.82,WSW,250,0.0,7.0,27,0.00,,,0.00,Weather View 32 v70,2013-06-15 22:51:00,
2013-06-15 14:56:00,80.5,43.3,29.82,WSW,257,3.0,7.0,27,0.00,,,0.00,Weather View 32 v70,2013-06-15 22:56:00,
2013-06-15 15:01:00,80.7,43.5,29.81,West,260,0.0,7.0,27,0.00,,,0.00,Weather View 32 v70,2013-06-15 23:01:00,
2013-06-15 15:06:00,80.9,42.7,29.82,WSW,258,1.0,7.0,26,0.00,,,0.00,Weather View 32 v70,2013-06-15 23:06:00,
2013-06-15 15:11:00,80.8,42.6,29.82,SW,236,1.0,7.0,26,0.00,,,0.00,Weather View 32 v70,2013-06-15 23:11:00,
2013-06-15 15:16:00,80.7,41.5,29.82,WNW,296,3.0,7.0,25,0.00,,,0.00,Weather View 32 v70,2013-06-15 23:16:00,
2013-06-15 15:21:00,80.7,42.5,29.81,NW,313,3.0,7.0,26,0.00,,,0.00,Weather View 32 v70,2013-06-15 23:21:00,
2013-06-15 15:26:00,80.6,43.4,29.81,ENE,66,1.0,7.0,27,0.00,,,0.00,Weather View 32 v70,2013-06-15 23:26:00,
2013-06-15 15:31:00,80.5,43.3,29.81,ENE,66,0.0,7.0,27,0.00,,,0.00,Weather View 32 v70,2013-06-15 23:31:00,
2013-06-15 15:36:00,81.0,43.8,29.81,East,87,4.0,7.0,27,0.00,,,0.00,Weather View 32 v70,2013-06-15 23:36:00,
2013-06-15 15:41:00,81.3,43.0,29.81,WSW,238,1.0,7.0,26,0.00,,,0.00,Weather View 32 v70,2013-06-15 23:41:00,
2013-06-15 15:46:00,81.4,43.1,29.80,SW,230,1.0,7.0,26,0.00,,,0.00,Weather View 32 v70,2013-06-15 23:46:00,
2013-06-15 15:51:00,81.6,42.3,29.80,SW,230,1.0,6.0,25,0.00,,,0.00,Weather View 32 v70,2013-06-15 23:51:00,
2013-06-15 15:56:00,81.7,41.3,29.80,WSW,247,4.0,7.0,24,0.00,,,0.00,Weather View 32 v70,2013-06-15 23:56:00,
2013-06-15 16:01:00,82.6,40.9,29.80,NW,317,4.0,7.0,23,0.00,,,0.00,Weather View 32 v70,2013-06-16 00:01:00,
2013-06-15 16:06:00,82.9,41.2,29.80,NW,320,3.0,7.0,23,0.00,,,0.00,Weather View 32 v70,2013-06-16 00:06:00,
2013-06-15 16:11:00,82.6,42.0,29.80,NE,37,3.0,7.0,24,0.00,,,0.00,Weather View 32 v70,2013-06-16 00:11:00,
2013-06-15 16:16:00,82.9,42.3,29.80,WSW,242,2.0,7.0,24,0.00,,,0.00,Weather View 32 v70,2013-06-16 00:16:00,
2013-06-15 16:21:00,83.5,42.8,29.80,WNW,298,3.0,7.0,24,0.00,,,0.00,Weather View 32 v70,2013-06-16 00:21:00,
2013-06-15 16:26:00,83.6,42.9,29.79,WNW,303,2.0,7.0,24,0.00,,,0.00,Weather View 32 v70,2013-06-16 00:26:00,
2013-06-15 16:31:00,84.1,43.3,29.80,NW,304,1.0,7.0,24,0.00,,,0.00,Weather View 32 v70,2013-06-16 00:31:00,
2013-06-15 16:36:00,84.3,46.6,29.79,NW,304,3.0,7.0,27,0.00,,,0.00,Weather View 32 v70,2013-06-16 00:36:00,
2013-06-15 16:41:00,84.2,46.5,29.79,NW,305,1.0,7.0,27,0.00,,,0.00,Weather View 32 v70,2013-06-16 00:41:00,
2013-06-15 16:46:00,84.6,45.8,29.79,WNW,295,3.0,7.0,26,0.00,,,0.00,Weather View 32 v70,2013-06-16 00:46:00,
2013-06-15 16:51:00,84.7,43.8,29.79,West,269,1.0,7.0,24,0.00,,,0.00,Weather View 32 v70,2013-06-16 00:51:00,
2013-06-15 16:56:00,84.6,43.7,29.79,NW,320,1.0,6.0,24,0.00,,,0.00,Weather View 32 v70,2013-06-16 00:56:00,
2013-06-15 17:01:00,84.6,43.7,29.79,NW,326,3.0,6.0,24,0.00,,,0.00,Weather View 32 v70,2013-06-16 01:01:00,
2013-06-15 17:06:00,84.6,44.8,29.79,WNW,285,2.0,6.0,25,0.00,,,0.00,Weather View 32 v70,2013-06-16 01:06:00,
2013-06-15 17:11:00,83.6,44.0,29.79,WSW,255,3.0,9.0,25,0.00,,,0.00,Weather View 32 v70,2013-06-16 01:11:00,
2013-06-15 17:16:00,82.9,44.4,29.79,West,260,1.0,9.0,26,0.00,,,0.00,Weather View 32 v70,2013-06-16 01:16:00,
2013-06-15 17:21:00,82.8,44.3,29.78,West,260,1.0,9.0,26,0.00,,,0.00,Weather View 32 v70,2013-06-16 01:21:00,
2013-06-15 17:26:00,83.0,42.4,29.79,SW,223,1.0,9.0,24,0.00,,,0.00,Weather View 32 v70,2013-06-16 01:26:00,
2013-06-15 17:31:00,83.0,43.4,29.79,NW,309,0.0,9.0,25,0.00,,,0.00,Weather View 32 v70,2013-06-16 01:31:00,
2013-06-15 17:36:00,83.2,43.6,29.79,WSW,240,4.0,9.0,25,0.00,,,0.00,Weather View 32 v70,2013-06-16 01:36:00,
2013-06-15 17:41:00,83.3,44.7,29.78,WNW,293,0.0,9.0,26,0.00,,,0.00,Weather View 32 v70,2013-06-16 01:41:00,
2013-06-15 17:46:00,83.7,46.1,29.78,WSW,254,2.0,9.0,27,0.00,,,0.00,Weather View 32 v70,2013-06-16 01:46:00,
2013-06-15 17:51:00,83.8,45.2,29.78,WSW,239,3.0,9.0,26,0.00,,,0.00,Weather View 32 v70,2013-06-16 01:51:00,
2013-06-15 17:56:00,84.1,43.3,29.78,WSW,244,1.0,9.0,24,0.00,,,0.00,Weather View 32 v70,2013-06-16 01:56:00,
2013-06-15 18:01:00,83.6,44.0,29.79,WSW,256,4.0,9.0,25,0.00,,,0.00,Weather View 32 v70,2013-06-16 02:01:00,
2013-06-15 18:06:00,83.4,44.8,29.78,WSW,239,3.0,9.0,26,0.00,,,0.00,Weather View 32 v70,2013-06-16 02:06:00,
2013-06-15 18:11:00,83.4,44.8,29.78,WSW,255,2.0,8.0,26,0.00,,,0.00,Weather View 32 v70,2013-06-16 02:11:00,
2013-06-15 18:16:00,83.0,44.5,29.79,WSW,255,0.0,8.0,26,0.00,,,0.00,Weather View 32 v70,2013-06-16 02:16:00,
2013-06-15 18:21:00,82.9,44.4,29.78,WSW,255,0.0,8.0,26,0.00,,,0.00,Weather View 32 v70,2013-06-16 02:21:00,
2013-06-15 18:26:00,83.2,45.6,29.78,WSW,255,2.0,8.0,27,0.00,,,0.00,Weather View 32 v70,2013-06-16 02:26:00,
2013-06-15 18:31:00,83.4,44.8,29.78,WSW,255,1.0,8.0,26,0.00,,,0.00,Weather View 32 v70,2013-06-16 02:31:00,
2013-06-15 18:36:00,84.1,44.4,29.78,WSW,255,2.0,8.0,25,0.00,,,0.00,Weather View 32 v70,2013-06-16 02:36:00,
2013-06-15 18:41:00,84.5,44.7,29.78,WSW,255,1.0,8.0,25,0.00,,,0.00,Weather View 32 v70,2013-06-16 02:41:00,
2013-06-15 18:46:00,84.5,46.7,29.78,WSW,254,2.0,8.0,27,0.00,,,0.00,Weather View 32 v70,2013-06-16 02:46:00,
2013-06-15 18:51:00,83.6,46.0,29.78,WSW,253,2.0,8.0,27,0.00,,,0.00,Weather View 32 v70,2013-06-16 02:51:00,
2013-06-15 18:56:00,82.5,45.0,29.78,WSW,252,1.0,8.0,27,0.00,,,0.00,Weather View 32 v70,2013-06-16 02:56:00,
2013-06-15 19:01:00,81.8,44.4,29.78,WSW,247,0.0,6.0,27,0.00,,,0.00,Weather View 32 v70,2013-06-16 03:01:00,
2013-06-15 19:06:00,82.4,45.0,29.78,WSW,247,2.0,6.0,27,0.00,,,0.00,Weather View 32 v70,2013-06-16 03:06:00,
2013-06-15 19:11:00,83.2,43.6,29.78,WSW,247,0.0,5.0,25,0.00,,,0.00,Weather View 32 v70,2013-06-16 03:11:00,
2013-06-15 19:16:00,83.7,44.0,29.78,WSW,247,1.0,5.0,25,0.00,,,0.00,Weather View 32 v70,2013-06-16 03:16:00,
2013-06-15 19:21:00,84.1,43.3,29.77,WSW,247,1.0,5.0,24,0.00,,,0.00,Weather View 32 v70,2013-06-16 03:21:00,
2013-06-15 19:26:00,84.4,44.6,29.77,WSW,247,0.0,5.0,25,0.00,,,0.00,Weather View 32 v70,2013-06-16 03:26:00,
2013-06-15 19:31:00,84.8,45.0,29.78,WSW,247,2.0,5.0,25,0.00,,,0.00,Weather View 32 v70,2013-06-16 03:31:00,
2013-06-15 19:36:00,84.8,43.9,29.78,WSW,256,0.0,6.0,24,0.00,,,0.00,Weather View 32 v70,2013-06-16 03:36:00,
2013-06-15 19:41:00,84.9,44.0,29.78,West,273,3.0,6.0,24,0.00,,,0.00,Weather View 32 v70,2013-06-16 03:41:00,
2013-06-15 19:46:00,84.7,43.8,29.77,WSW,254,3.0,6.0,24,0.00,,,0.00,Weather View 32 v70,2013-06-16 03:46:00,
2013-06-15 19:51:00,84.4,43.6,29.78,West,279,4.0,6.0,24,0.00,,,0.00,Weather View 32 v70,2013-06-16 03:51:00,
2013-06-15 19:56:00,84.3,43.5,29.78,West,266,0.0,6.0,24,0.00,,,0.00,Weather View 32 v70,2013-06-16 03:56:00,
2013-06-15 20:01:00,84.3,43.5,29.78,West,266,1.0,6.0,24,0.00,,,0.00,Weather View 32 v70,2013-06-16 04:01:00,
2013-06-15 20:06:00,84.1,44.4,29.77,West,266,1.0,6.0,25,0.00,,,0.00,Weather View 32 v70,2013-06-16 04:06:00,
2013-06-15 20:11:00,84.1,44.4,29.77,West,266,0.0,6.0,25,0.00,,,0.00,Weather View 32 v70,2013-06-16 04:11:00,
2013-06-15 20:16:00,84.1,44.4,29.77,West,266,1.0,6.0,25,0.00,,,0.00,Weather View 32 v70,2013-06-16 04:16:00,
2013-06-15 20:21:00,84.1,45.4,29.77,West,266,2.0,6.0,26,0.00,,,0.00,Weather View 32 v70,2013-06-16 04:21:00,
2013-06-15 20:26:00,83.9,44.2,29.77,West,266,1.0,6.0,25,0.00,,,0.00,Weather View 32 v70,2013-06-16 04:26:00,
2013-06-15 20:31:00,83.6,44.0,29.77,West,266,2.0,6.0,25,0.00,,,0.00,Weather View 32 v70,2013-06-16 04:31:00,
2013-06-15 20:36:00,83.3,43.7,29.77,West,277,2.0,6.0,25,0.00,,,0.00,Weather View 32 v70,2013-06-16 04:36:00,
2013-06-15 20:41:00,83.1,44.6,29.78,West,277,1.0,6.0,26,0.00,,,0.00,Weather View 32 v70,2013-06-16 04:41:00,
2013-06-15 20:46:00,82.8,45.3,29.78,West,277,2.0,6.0,27,0.00,,,0.00,Weather View 32 v70,2013-06-16 04:46:00,
2013-06-15 20:51:00,82.6,45.1,29.78,West,277,1.0,6.0,27,0.00,,,0.00,Weather View 32 v70,2013-06-16 04:51:00,
2013-06-15 20:56:00,82.4,45.0,29.78,WSW,256,0.0,5.0,27,0.00,,,0.00,Weather View 32 v70,2013-06-16 04:56:00,
2013-06-15 21:01:00,82.3,44.9,29.78,WSW,256,1.0,5.0,27,0.00,,,0.00,Weather View 32 v70,2013-06-16 05:01:00,
2013-06-15 21:06:00,82.2,44.8,29.78,WSW,256,1.0,5.0,27,0.00,,,0.00,Weather View 32 v70,2013-06-16 05:06:00,
2013-06-15 21:11:00,82.0,44.6,29.78,WSW,256,2.0,5.0,27,0.00,,,0.00,Weather View 32 v70,2013-06-16 05:11:00,
2013-06-15 21:16:00,82.1,44.7,29.78,WSW,256,1.0,5.0,27,0.00,,,0.00,Weather View 32 v70,2013-06-16 05:16:00,
2013-06-15 21:21:00,82.1,44.7,29.78,West,259,2.0,5.0,27,0.00,,,0.00,Weather View 32 v70,2013-06-16 05:21:00,
2013-06-15 21:26:00,82.0,44.6,29.78,West,259,0.0,5.0,27,0.00,,,0.00,Weather View 32 v70,2013-06-16 05:26:00,
2013-06-15 21:31:00,81.9,44.5,29.78,West,259,0.0,5.0,27,0.00,,,0.00,Weather View 32 v70,2013-06-16 05:31:00,
2013-06-15 21:36:00,81.7,44.4,29.78,West,259,1.0,5.0,27,0.00,,,0.00,Weather View 32 v70,2013-06-16 05:36:00,
2013-06-15 21:41:00,81.6,45.2,29.78,West,259,0.0,5.0,28,0.00,,,0.00,Weather View 32 v70,2013-06-16 05:41:00,
2013-06-15 21:46:00,81.6,45.2,29.78,West,259,0.0,5.0,28,0.00,,,0.00,Weather View 32 v70,2013-06-16 05:46:00,
2013-06-15 21:51:00,81.8,46.3,29.78,West,259,0.0,5.0,29,0.00,,,0.00,Weather View 32 v70,2013-06-16 05:51:00,
2013-06-15 21:56:00,81.8,46.3,29.78,West,259,1.0,5.0,29,0.00,,,0.00,Weather View 32 v70,2013-06-16 05:56:00,
2013-06-15 22:01:00,81.4,46.0,29.78,West,259,1.0,5.0,29,0.00,,,0.00,Weather View 32 v70,2013-06-16 06:01:00,
2013-06-15 22:07:00,81.4,45.1,29.78,West,259,0.0,5.0,28,0.00,,,0.00,Weather View 32 v70,2013-06-16 06:07:00,
2013-06-15 22:12:00,81.4,46.0,29.78,West,259,0.0,5.0,29,0.00,,,0.00,Weather View 32 v70,2013-06-16 06:12:00,
2013-06-15 22:17:00,81.4,45.1,29.78,West,259,0.0,5.0,28,0.00,,,0.00,Weather View 32 v70,2013-06-16 06:17:00,
2013-06-15 22:22:00,81.4,46.0,29.77,West,259,0.0,4.0,29,0.00,,,0.00,Weather View 32 v70,2013-06-16 06:22:00,
2013-06-15 22:27:00,81.2,45.8,29.78,West,259,0.0,4.0,29,0.00,,,0.00,Weather View 32 v70,2013-06-16 06:27:00,
2013-06-15 22:32:00,80.2,47.6,29.78,West,259,0.0,4.0,33,0.00,,,0.00,Weather View 32 v70,2013-06-16 06:32:00,
2013-06-15 22:37:00,79.0,48.1,29.78,West,259,0.0,4.0,34,0.00,,,0.00,Weather View 32 v70,2013-06-16 06:37:00,
2013-06-15 22:42:00,77.5,49.1,29.78,West,259,0.0,4.0,37,0.00,,,0.00,Weather View 32 v70,2013-06-16 06:42:00,
2013-06-15 22:47:00,76.5,48.2,29.78,West,259,0.0,4.0,37,0.00,,,0.00,Weather View 32 v70,2013-06-16 06:47:00,
2013-06-15 22:52:00,75.5,48.7,29.79,West,259,0.0,4.0,39,0.00,,,0.00,Weather View 32 v70,2013-06-16 06:52:00,
2013-06-15 22:59:00,74.7,48.7,29.79,West,259,0.0,4.0,40,0.00,,,0.00,Weather View 32 v70,2013-06-16 06:59:00,
2013-06-15 23:04:00,73.5,49.6,29.79,West,259,0.0,4.0,43,0.00,,,0.00,Weather View 32 v70,2013-06-16 07:04:00,
2013-06-15 23:09:00,72.5,49.9,29.79,West,259,0.0,1.0,45,0.00,,,0.00,Weather View 32 v70,2013-06-16 07:09:00,
2013-06-15 23:14:00,71.5,50.7,29.79,West,259,0.0,0.0,48,0.00,,,0.00,Weather View 32 v70,2013-06-16 07:14:00,
2013-06-15 23:19:00,70.8,50.6,29.79,West,259,0.0,0.0,49,0.00,,,0.00,Weather View 32 v70,2013-06-16 07:19:00,
2013-06-15 23:24:00,70.2,50.6,29.79,West,259,0.0,0.0,50,0.00,,,0.00,Weather View 32 v70,2013-06-16 07:24:00,
2013-06-15 23:29:00,69.7,50.7,29.79,West,259,0.0,0.0,51,0.00,,,0.00,Weather View 32 v70,2013-06-16 07:29:00,
2013-06-15 23:34:00,69.2,51.3,29.80,West,259,0.0,0.0,53,0.00,,,0.00,Weather View 32 v70,2013-06-16 07:34:00,
2013-06-15 23:39:00,68.5,51.2,29.80,West,259,0.0,0.0,54,0.00,,,0.00,Weather View 32 v70,2013-06-16 07:39:00,
2013-06-15 23:44:00,67.9,51.1,29.80,West,259,0.0,0.0,55,0.00,,,0.00,Weather View 32 v70,2013-06-16 07:44:00,
2013-06-15 23:49:00,67.4,51.1,29.80,West,259,0.0,0.0,56,0.00,,,0.00,Weather View 32 v70,2013-06-16 07:49:00,
2013-06-15 23:54:00,67.0,51.2,29.80,West,259,0.0,0.0,57,0.00,,,0.00,Weather View 32 v70,2013-06-16 07:54:00,
2013-06-15 23:59:00,66.6,51.3,29.80,West,259,0.0,0.0,58,0.00,,,0.00,Weather View 32 v70,2013-06-16 07:59:00,